Tracking 28052 objects as of 23-Sep-2023
HD Live streaming from Space Station
objects crossing your sky now

STARLINK-3700

Track STARLINK-3700 now!
10-day predictions
STARLINK-3700 is classified as:


NORAD ID: 51956
Int'l Code: 2022-025A
Perigee: 548.4 km
Apogee: 550.1 km
Inclination: 53.1 °
Period: 95.5 minutes
Semi major axis: 6920 km
RCS: Unknown
Launch date: March 9, 2022
Source: United States (US)
Launch site: AIR FORCE EASTERN TEST RANGE (AFETR)
Your satellite tracking list
Your tracking list is empty




NASA's NSSDC Master Catalog

Two Line Element Set (TLE):
1 51956U 22025A   23265.77898097  .00010803  00000-0  71073-3 0  9993
2 51956  53.0535 103.1189 0001228 100.1685 259.9443 15.08053066 86561
Source of the keplerian elements: AFSPC